Location: Mount Cross
(36.6390°N, 79.4878°W)
Time: 02:09:03
(UTC+00:00)

Vanguard 2 Rocket - Pass Details

Date: 25 March 2023
Orbit: 554 x 3314 km, 32.9° (Epoch: 08 June)

Event Time Altitude Azimuth Distance (km) Brightness Sun altitude
Rises 03:36:45 0° 271° (W) 4,405 10.8 -44.3°
Reaches altitude 10° 03:39:11 10° 269° (W) 3,709 10.3 -44.6°
Enters shadow 03:45:06 46° 256° (WSW) 2,455 8.9 -45.3°
